sat.trackr.live / text

‹ back to catalog

STARLINK-36222

NORAD 67097 · 2025-298Y

PAYLOAD ACTIVE UNKNOWN

§ Identity

Operator
Country
US
Launch date
2025-12-14
Launch site
AFWTR
Launch vehicle
Mass (kg)
RCS (m²)

Purposes: comms

External: N2YO · Heavens-Above · Gunter

§ Orbital elements

Epoch: 2026-09-19T16:33:49.719456Z

Period
96.11 min
Inclination
69.9999°
Eccentricity
0.0003759
Mean motion
14.98334865 rev/d
Perigee alt
569.4 km
Apogee alt
574.7 km
Semi-major
6,950.2 km
B*
2.3353e-4
RAAN
245.4319°
Arg perigee
270.2491°
Mean anomaly
89.8237°
Rev number
4,227

§ Raw data

STARLINK-362221 67097U 25298Y   26262.69015879  .00002695  00000+0  23353-3 0  99982 67097  69.9999 245.4319 0003759 270.2491  89.8237 14.98334865 42272

JSON: /api/v1/satellites/67097 · /tle

For live sub-satellite position, see the globe view (requires WebGL).

§ Visibility from observer

Set your observer location to see the next 7 days of passes ≥ 10°. The values pass through the URL so the page stays shareable.

No JS? Fill the form by hand. The geolocation button needs JavaScript.